COSMOS 2251 DEB, 35606

Orbit data source: Space-Track

COSMOS 2251 DEB, 35606 is space debris in LEO originally from a launch on Wed, 16 Jun 1993 UTC launched from the Plesetsk Missile And Space Complex (PKMTR). The debris from Iridium 33, an American commercial communications satellite, has been tracked extensively since its accidental collision with the defunct Russian satellite Cosmos 2251 in 2009. This event, occurring at high speed in low Earth orbit (LEO), generated thousands of pieces of space debris, significantly increasing the risk of further collisions. The Iridium 33 debris cloud has impacted space traffic management and orbital debris mitigation strategies, making it a subject of ongoing study in space situational awareness.

Loading next visibility...
Identifier
35606, 1993-036AMZ
Orbit
LEO
Country
Flag of CISCIS
Related business
Manufacturer
Unknown
Mission
Spacecraft
Bus & Motor
Unknown
Mass
Unknown
Launch date (UTC)
1993-06-16 (33 years ago)
Launch vehicle
Unknown
Launch site
Plesetsk Missile And Space Complex (PKMTR)
Object type
Payload
Rocket body
Debris
Shape & HBR
Unknown shape, 0.1 m
Radar Cross Section
Medium (>0.1 m² and <1 m²)

Expand to show TLE details & history
Last TLE update: 1 day ago

TLE from 1 day ago
0 COSMOS 2251 DEB
1 35606U 93036AMZ 26162.03145127  .00000363  00000-0  37948-3 0  9997
2 35606  73.8099  83.3925 0454053 260.1862  94.7703 13.41434751634572
Epoch: 2026-06-11T00:45Z
TLE epoch observation values (Epoch: 2026-06-11T00:45:17.389Z)
Latitude
0.00005°
Longitude
172.68897°
Altitude
1,149.895 km
Speed
7.257 km/s
True Right ascension
05h 33m 34s
True Declination
0° 00' 00"
Sunlit
Object was in daylight at epoch
Visualization orbit readout
Latitude
Unknown
Longitude
Unknown
Altitude
Unknown
Speed
Unknown
Apparent Right ascension
Unknown
Apparent Declination
Unknown
Sunlit
N/A
Visualization observer readout
Local Sidereal Time
21:00:40
Azimuth
Unknown
Elevation
Unknown
Doppler factor
Unknown
Orbital elements
Apogee altitude
1,441.304 km
Perigee altitude
762.057 km
Semi-major axis
7,479.818 km
Eccentricity
0.04541
Inclination
73.8099°
RAAN
83.3925°
Arg. of periapsis
260.1862°
True anomaly
99.92402°
Mean anomaly
94.7703°
Eccentric anomaly
97.35045°
Mean motion
3.35511 °/min
Orbital period
107.3 mins
BSTAR
0.00037948

Documentation

Showing up to 5 results
|